Tracking 29033 objects as of 22-Jun-2024
HD Live streaming from Space Station
objects crossing your sky now

OBJECT H

Track OBJECT H now!
10-day predictions
OBJECT H is classified as:


NORAD ID: 59058
Int'l Code: 2024-039H
Perigee: 476.6 km
Apogee: 499.9 km
Inclination: 97.4 °
Period: 94.2 minutes
Semi major axis: 6859 km
RCS: Unknown
Launch date: February 29, 2024
Source: (TBD)
Launch site: VOSTOCHNY COSMODROME (VOSTO)

Uplink (MHz):
Downlink (MHz): 401.120
Beacon (MHz):
Mode: 2k4 GMSK_USP
Call sign:
Status: Unknown


Note: This is a ROCKET BODY
Your satellite tracking list
Your tracking list is empty




NASA's NSSDC Master Catalog

Two Line Element Set (TLE):
1 59058U 24039H   24174.12068842  .00017775  00000-0  64540-3 0  9993
2 59058  97.3921 136.1223 0017001 191.3336 168.7523 15.28226794 17357
Source of the keplerian elements: AFSPC